Location: Schommer Observatory
(40.5200°N, 74.4500°W)
Time: 08:06:23
(UTC-05:00)

N. Korean satellite - Pass Details

Date: 15 October 2017
Orbit: 461 x 513 km, 97.2° (Epoch: 16 December)

Event Time Altitude Azimuth Distance (km) Brightness Sun altitude
Rises 19:00:58 0° 168° (SSE) 2,543 10.1 -9.1°
Reaches altitude 10° 19:03:03 10° 169° (SSE) 1,658 9.2 -9.5°
Maximum altitude 19:06:36 86° 255° (WSW) 484 6.6 -10.1°
Drops below altitude 10° 19:10:09 10° 347° (NNW) 1,644 9.4 -10.8°
Sets 19:12:11 0° 348° (NNW) 2,519 10.3 -11.2°
